Home > Weather > Miami > Past weeks

Flag for USA Past Weather in Miami, Florida, USA — Yesterday and Last 2 Weeks

Now
79 °F

Light rain. Partly sunny.


Feels Like: 82 °F
Forecast: 78 / 88 °F
Wind: No wind

Location: Miami International Airport

Current Time: Jun 28, 2016 at 2:54:26 PM

Latest Report: Jun 28, 2016 at 1:53 PM


Visibility: 7 mi

Pressure: 30.03 "Hg

Humidity: 77%

Dew Point: 71 °F

Location of MiamiLocation

Past Weather in Miami — Graph

°F

Miami Temperature Yesterday

Maximum temperature yesterday: 86 °F (at 9:53 AM)
Minimum temperature yesterday: 78 °F (at 11:53 PM)
Average temperature yesterday: 82 °F

High & Low Weather Summary for the Past Weeks

 TemperatureHumidityPressure
High94 °F (Jun 18, 2:53 PM)100% (Jun 22, 1:53 AM)30.14 "Hg (Jun 22, 1:53 AM)
Low73 °F (Jun 21, 1:53 PM)42% (Jun 14, 4:53 PM)29.93 "Hg (Jun 13, 5:53 PM)
Average83 °F73%30.05 "Hg
* Reported Jun 13 12:53 PM — Jun 28 12:53 PM, Miami, Weather by CustomWeather, © 2016

Note: Actual official high and low records may vary slightly from our data, if they occured in-between our weather recording intervals... More about our weather records

Advertising

Miami Weather History for the Previous 24 Hours

Scroll right to see more
 ConditionsComfort  
Time TempWeatherWind HumidityBarometerVisibility
12:53 PM
Tue, Jun 28
82 °FLight rain. Broken clouds.3 mph70%30.03 "Hg7 mi
11:53 AM82 °FBroken clouds.7 mph74%30.03 "Hg10 mi
10:53 AM87 °FBroken clouds.3 mph63%30.03 "Hg10 mi
9:53 AM85 °FBroken clouds.5 mph68%30.04 "Hg10 mi
8:53 AM83 °FScattered clouds.3 mph74%30.03 "Hg10 mi
7:53 AM81 °FPartly sunny.3 mph77%30.03 "Hg10 mi
6:53 AM78 °FPassing clouds.No wind84%30.01 "Hg10 mi
5:53 AM78 °FPassing clouds.No wind82%30.01 "Hg10 mi
4:53 AM77 °FPassing clouds.No wind85%30.00 "Hg10 mi
3:53 AM77 °FPassing clouds.No wind82%30.00 "Hg10 mi
2:53 AM78 °FPassing clouds.3 mph79%30.02 "Hg10 mi
1:53 AM79 °FPartly cloudy.3 mph79%30.03 "Hg10 mi
12:53 AM79 °FPassing clouds.No wind79%30.02 "Hg10 mi
11:53 PM
Mon, Jun 27
78 °FPassing clouds.6 mph82%30.02 "Hg10 mi
10:53 PM79 °FPassing clouds.No wind77%30.01 "Hg10 mi
9:53 PM79 °FPassing clouds.No wind77%30.01 "Hg10 mi
8:53 PM80 °FScattered clouds.3 mph71%30.00 "Hg10 mi
7:53 PM83 °FPartly sunny.6 mph70%30.01 "Hg10 mi
6:53 PM84 °FBroken clouds.7 mph67%30.01 "Hg10 mi
5:53 PM84 °FBroken clouds.6 mph70%30.00 "Hg10 mi
4:53 PM83 °FPartly sunny.No wind70%30.01 "Hg10 mi
3:56 PM85 °FThunderstorms. Broken clouds.12 mph68%30.02 "Hg10 mi
2:53 PM81 °FBroken clouds.6 mph72%30.03 "Hg10 mi
Weather by CustomWeather, © 2016

See weather overviewHow to use our weather pages